Location: Shenandoah County Park
(38.9356°N, 78.4524°W)
Time: 14:18:05
(UTC-05:00)

Transit 2A - Pass Details

Date: 16 October 2025
Orbit: 591 x 954 km, 66.7° (Epoch: 07 November)

Event Time Altitude Azimuth Distance (km) Brightness Sun altitude
Exits shadow 03:45:35 23° 50° (NE) 1,857 8.4 -42.3°
Drops below altitude 10° 03:50:19 10° 99° (E) 2,671 9.3 -41.5°
Sets 03:53:27 0° 113° (ESE) 3,621 9.9 -41.0°
